Date String (YYYY-MM-DD hh:mm:ss) UTC,Instrument flags,Ambient pressure (hPa),Sample flow (lpm),Bypass flow (lpm),Sample temperature (°C),Ambient temperature (°C),ASC tube jacket temperature (°C),LED temperature (°C),Box temperature (°C),Sample RH (%),Span deviation,Mass concentration (μg/m³),Mass concentration (μg/m³),Mass concentration (μg/m³)
DateTimeUTC,F1_M11,P_M11,Q1_M11,Q2_M11,T1_M11,T2_M11,T3_M11,T4_M11,T5_M11,U1_M11,ZSPAN_M11,X0_M11,X2_M11,X1_M11
2022-01-12 12:00:00,,0829.6,5.00,0.00,23.1,22.3,00.0,32.0,24.8,07.9,0000.0,0001.73,0000.11,0000.01
2022-01-12 12:01:00,,0829.6,4.99,0.00,23.0,22.3,00.0,32.0,24.8,08.2,0000.0,0001.72,0000.10,0000.01
2022-01-12 12:02:00,,0829.6,5.02,0.00,23.1,22.3,00.0,32.0,24.8,08.5,0000.0,0001.75,0000.11,0000.01
2022-01-12 12:03:00,,0829.7,4.99,0.00,23.1,22.3,00.0,32.0,24.8,08.1,0000.0,0001.75,0000.11,0000.01
2022-01-12 12:04:00,,0829.8,5.00,0.00,23.1,22.3,00.0,32.1,24.8,08.1,0000.0,0001.73,0000.10,0000.01
2022-01-12 12:05:00,,0829.8,5.00,0.00,23.1,22.3,00.0,32.1,24.8,08.3,0000.0,0001.64,0000.07,0000.01
2022-01-12 12:06:00,,0829.8,5.01,0.00,23.0,22.2,00.0,32.1,24.8,08.7,0000.0,0001.55,0000.05,0000.01
2022-01-12 12:07:00,,0829.8,5.00,0.00,23.0,22.2,00.0,32.1,24.8,08.5,0000.0,0001.26,0000.05,0000.01
2022-01-12 12:08:00,,0829.8,5.01,0.00,23.0,22.2,00.0,32.0,24.8,08.4,0000.0,0000.44,0000.04,0000.01
2022-01-12 12:09:00,,0829.9,5.00,0.00,23.0,22.2,00.0,32.0,24.8,08.7,0000.0,0000.44,0000.05,0000.01
2022-01-12 12:10:00,,0829.9,4.98,0.00,23.0,22.2,00.0,32.0,24.8,09.0,0000.0,0000.13,0000.05,0000.01
2022-01-12 12:11:00,,0829.8,5.00,0.00,23.0,22.2,00.0,32.0,24.8,09.0,0000.0,0000.20,0000.05,0000.01
2022-01-12 12:12:00,,0829.8,5.01,0.00,23.0,22.2,00.0,32.0,24.7,09.1,0000.0,0000.33,0000.08,0000.01
2022-01-12 12:13:00,,0829.8,5.00,0.00,23.0,22.2,00.0,32.0,24.8,09.1,0000.0,0000.37,0000.08,0000.01
2022-01-12 12:14:00,,0829.8,4.99,0.00,23.0,22.2,00.0,32.0,24.8,09.2,0000.0,0000.49,0000.10,0000.01
2022-01-12 12:15:00,,0829.8,5.01,0.00,23.0,22.2,00.0,32.0,24.8,09.1,0000.0,0000.53,0000.11,0000.01
2022-01-12 12:16:00,,0829.8,5.00,0.00,23.0,22.2,00.0,32.0,24.7,08.8,0000.0,0000.55,0000.12,0000.01
2022-01-12 12:17:00,,0829.8,4.99,0.00,23.0,22.2,00.0,32.0,24.8,08.4,0000.0,0000.53,0000.11,0000.01
2022-01-12 12:18:00,,0829.9,5.01,0.00,23.0,22.2,00.0,32.0,24.8,08.3,0000.0,0000.53,0000.11,0000.01
2022-01-12 12:19:00,,0830.0,5.00,0.00,23.0,22.2,00.0,32.0,24.8,08.2,0000.0,0001.54,0000.13,0000.01
2022-01-12 12:20:00,,0830.0,4.99,0.00,23.0,22.2,00.0,32.0,24.8,08.3,0000.0,0001.73,0000.12,0000.01
2022-01-12 12:21:00,,0830.0,5.01,0.00,23.0,22.2,00.0,32.0,24.8,08.4,0000.0,0002.23,0000.13,0000.01
2022-01-12 12:22:00,,0829.9,5.00,0.00,23.0,22.2,00.0,32.0,24.7,08.4,0000.0,0004.06,0000.13,0000.01
2022-01-12 12:23:00,,0829.9,5.00,0.00,23.0,22.2,00.0,32.0,24.8,08.3,0000.0,0004.95,0000.11,0000.01
2022-01-12 12:24:00,,0829.9,4.99,0.00,23.0,22.2,00.0,32.0,24.8,08.1,0000.0,0004.89,0000.10,0000.01
2022-01-12 12:25:00,,0829.8,5.00,0.00,23.0,22.2,00.0,32.0,24.7,08.3,0000.0,0004.79,0000.09,0000.01
2022-01-12 12:26:00,,0829.8,4.99,0.00,23.0,22.2,00.0,32.0,24.7,08.5,0000.0,0004.78,0000.08,0000.01
2022-01-12 12:27:00,,0829.8,5.00,0.00,23.0,22.2,00.0,32.0,24.7,08.6,0000.0,0005.19,0000.08,0000.01
2022-01-12 12:28:00,,0829.9,5.01,0.00,23.0,22.2,00.0,32.0,24.7,08.3,0000.0,0006.79,0000.08,0000.01
2022-01-12 12:29:00,,0830.0,4.98,0.00,23.0,22.2,00.0,32.0,24.7,08.6,0000.0,0007.47,0000.08,0000.01
2022-01-12 12:30:00,,0830.0,5.01,0.00,23.0,22.2,00.0,32.0,24.7,08.5,0000.0,0006.71,0000.07,0000.01
2022-01-12 12:31:00,,0830.0,5.00,0.00,23.0,22.2,00.0,32.0,24.7,08.4,0000.0,0006.40,0000.07,0000.01
2022-01-12 12:32:00,,0830.0,5.00,0.00,23.0,22.2,00.0,32.0,24.7,08.1,0000.0,0005.76,0000.06,0000.01
2022-01-12 12:33:00,,0830.0,4.99,0.00,23.0,22.2,00.0,32.0,24.7,08.0,0000.0,0003.87,0000.05,0000.01
2022-01-12 12:34:00,,0830.0,5.00,0.00,23.0,22.2,00.0,32.0,24.7,07.9,0000.0,0003.01,0000.06,0000.01
2022-01-12 12:35:00,,0830.1,4.99,0.00,23.0,22.2,00.0,32.0,24.7,07.7,0000.0,0003.28,0000.07,0000.01
2022-01-12 12:36:00,,0830.1,5.00,0.00,23.0,22.2,00.0,32.0,24.7,07.7,0000.0,0003.40,0000.07,0000.01
2022-01-12 12:37:00,,0830.1,5.01,0.00,23.0,22.2,00.0,32.0,24.7,08.1,0000.0,0003.37,0000.06,0000.01
2022-01-12 12:38:00,,0830.1,4.99,0.00,23.0,22.2,00.0,32.0,24.7,08.5,0000.0,0002.85,0000.07,0000.01
2022-01-12 12:39:00,,0830.2,5.01,0.00,23.0,22.2,00.0,32.0,24.7,08.5,0000.0,0001.31,0000.09,0000.00
2022-01-12 12:40:00,,0830.2,5.01,0.00,23.0,22.2,00.0,32.0,24.7,08.5,0000.0,0000.68,0000.09,0000.00
2022-01-12 12:41:00,,0830.2,5.00,0.00,23.0,22.2,00.0,32.0,24.7,08.5,0000.0,0002.07,0000.08,0000.00
2022-01-12 12:42:00,,0830.2,5.00,0.00,23.0,22.2,00.0,32.0,24.7,08.7,0000.0,0003.64,0000.07,0000.00
2022-01-12 12:43:00,,0830.2,5.01,0.00,23.0,22.2,00.0,32.0,24.7,08.7,0000.0,0003.64,0000.07,0000.00
2022-01-12 12:44:00,,0830.2,4.99,0.00,23.0,22.2,00.0,32.0,24.7,08.5,0000.0,0003.64,0000.07,0000.00
2022-01-12 12:45:00,,0830.3,5.00,0.00,23.0,22.2,00.0,32.0,24.7,08.5,0000.0,0003.59,0000.06,0000.00
2022-01-12 12:46:00,,0830.4,4.99,0.00,23.0,22.2,00.0,32.0,24.8,08.6,0000.0,0003.25,0000.03,0000.00
2022-01-12 12:47:00,,0830.4,5.00,0.00,23.0,22.2,00.0,32.0,24.7,08.7,0000.0,0003.22,0000.04,0000.00
2022-01-12 12:48:00,,0830.3,5.01,0.00,22.9,22.1,00.0,32.0,24.7,08.4,0000.0,0003.28,0000.04,0000.00
2022-01-12 12:49:00,,0830.2,4.98,0.00,22.9,22.1,00.0,32.0,24.7,08.4,0000.0,0003.27,0000.05,0000.01
2022-01-12 12:50:00,,0830.2,5.01,0.00,22.9,22.1,00.0,32.0,24.7,08.6,0000.0,0003.21,0000.03,0000.01
2022-01-12 12:51:00,,0830.2,5.00,0.00,22.9,22.1,00.0,32.0,24.7,08.6,0000.0,0003.21,0000.03,0000.01
2022-01-12 12:52:00,,0830.2,5.00,0.00,22.9,22.1,00.0,32.0,24.7,08.5,0000.0,0001.95,0000.03,0000.01
2022-01-12 12:53:00,,0830.1,5.00,0.00,22.9,22.1,00.0,31.9,24.7,08.4,0000.0,0000.33,0000.03,0000.01
2022-01-12 12:54:00,,0830.2,4.99,0.00,22.9,22.1,00.0,31.9,24.7,08.4,0000.0,0001.25,0000.05,0000.01
2022-01-12 12:55:00,,0830.2,5.01,0.00,22.9,22.1,00.0,31.9,24.7,08.4,0000.0,0001.95,0000.06,0000.01
2022-01-12 12:56:00,,0830.2,4.99,0.00,22.9,22.1,00.0,31.9,24.7,08.5,0000.0,0002.62,0000.07,0000.01
2022-01-12 12:57:00,,0830.2,5.00,0.00,22.9,22.1,00.0,31.9,24.6,08.4,0000.0,0002.62,0000.07,0000.01
2022-01-12 12:58:00,,0830.1,5.02,0.00,22.9,22.1,00.0,31.9,24.6,08.3,0000.0,0002.59,0000.06,0000.00
2022-01-12 12:59:00,,0830.2,5.01,0.00,22.9,22.1,00.0,31.9,24.6,08.2,0000.0,0002.53,0000.06,0000.00
